Time,TemperatureF,DewpointF,PressureIn,WindDirection,WindDirectionDegrees,WindSpeedMPH,WindSpeedGustMPH,Humidity,HourlyPrecipIn,Conditions,Clouds,dailyrainin,SoftwareType,DateUTC
2013-05-08 00:00:00,50.2,39.3,29.77,ENE,77,2.0,6.0,66,0.00,CLR,,0.00,WeatherDisplay:10.37,2013-05-07 23:00:00,
2013-05-08 00:10:00,49.1,37.8,29.76,ENE,76,0.0,4.0,65,0.00,CLR,,0.00,WeatherDisplay:10.37,2013-05-07 23:10:00,
2013-05-08 00:20:00,47.3,36.1,29.76,ENE,58,1.0,2.0,65,0.00,CLR,,0.00,WeatherDisplay:10.37,2013-05-07 23:20:00,
2013-05-08 00:30:00,46.2,35.8,29.76,ENE,65,0.0,3.0,67,0.00,CLR,,0.00,WeatherDisplay:10.37,2013-05-07 23:30:00,
2013-05-08 00:40:00,44.8,34.5,29.75,NE,54,2.0,4.0,67,0.00,CLR,,0.00,WeatherDisplay:10.37,2013-05-07 23:40:00,
2013-05-08 00:50:00,44.8,35.2,29.75,ENE,76,2.0,6.0,69,0.00,CLR,,0.00,WeatherDisplay:10.37,2013-05-07 23:50:00,
2013-05-08 01:00:00,44.4,34.9,29.74,ENE,69,3.0,5.0,69,0.00,CLR,,0.00,WeatherDisplay:10.37,2013-05-08 00:00:00,
2013-05-08 01:10:00,44.8,35.9,29.74,ENE,72,2.0,5.0,71,0.00,CLR,,0.00,WeatherDisplay:10.37,2013-05-08 00:10:00,
2013-05-08 01:20:00,44.9,36.1,29.74,ENE,78,1.0,4.0,71,0.00,CLR,,0.00,WeatherDisplay:10.37,2013-05-08 00:20:00,
2013-05-08 01:30:00,44.1,35.3,29.73,ENE,70,2.0,3.0,71,0.00,CLR,,0.00,WeatherDisplay:10.37,2013-05-08 00:30:00,
2013-05-08 01:40:00,43.7,34.9,29.73,ENE,63,3.0,3.0,71,0.00,CLR,,0.00,WeatherDisplay:10.37,2013-05-08 00:40:00,
2013-05-08 01:50:00,43.2,34.7,29.72,ENE,67,1.0,4.0,72,0.00,CLR,,0.00,WeatherDisplay:10.37,2013-05-08 00:50:00,
2013-05-08 02:00:00,43.0,34.9,29.72,ENE,73,5.0,7.0,73,0.00,CLR,,0.00,WeatherDisplay:10.37,2013-05-08 01:00:00,
2013-05-08 02:10:00,43.0,35.3,29.72,East,83,3.0,6.0,74,0.00,CLR,,0.00,WeatherDisplay:10.37,2013-05-08 01:10:00,
2013-05-08 02:20:00,41.9,34.2,29.72,ENE,57,0.0,4.0,74,0.00,CLR,,0.00,WeatherDisplay:10.37,2013-05-08 01:20:00,
2013-05-08 02:30:00,42.1,34.7,29.71,ENE,75,3.0,5.0,75,0.00,CLR,,0.00,WeatherDisplay:10.37,2013-05-08 01:30:00,
2013-05-08 02:40:00,41.5,34.5,29.71,ENE,78,1.0,4.0,76,0.00,CLR,,0.00,WeatherDisplay:10.37,2013-05-08 01:40:00,
2013-05-08 02:50:00,41.0,34.4,29.70,ENE,74,3.0,5.0,77,0.00,CLR,,0.00,WeatherDisplay:10.37,2013-05-08 01:50:00,
2013-05-08 03:00:00,40.6,34.0,29.70,ENE,72,2.0,5.0,77,0.00,CLR,,0.00,WeatherDisplay:10.37,2013-05-08 02:00:00,
2013-05-08 03:10:00,41.0,35.0,29.70,East,88,3.0,5.0,79,0.00,CLR,,0.00,WeatherDisplay:10.37,2013-05-08 02:10:00,
2013-05-08 03:20:00,41.9,35.9,29.70,East,92,2.0,7.0,79,0.00,CLR,,0.00,WeatherDisplay:10.37,2013-05-08 02:20:00,
2013-05-08 03:30:00,42.4,36.7,29.69,East,99,3.0,7.0,80,0.00,CLR,,0.00,WeatherDisplay:10.37,2013-05-08 02:30:00,
2013-05-08 03:40:00,42.4,36.4,29.69,East,82,3.0,6.0,79,0.00,CLR,,0.00,WeatherDisplay:10.37,2013-05-08 02:40:00,
2013-05-08 03:50:00,43.3,37.6,29.68,East,84,5.0,6.0,80,0.00,CLR,,0.00,WeatherDisplay:10.37,2013-05-08 02:50:00,
2013-05-08 04:00:00,43.2,37.1,29.67,East,80,2.0,5.0,79,0.00,CLR,,0.00,WeatherDisplay:10.37,2013-05-08 03:00:00,
2013-05-08 04:10:00,43.0,36.6,29.67,East,80,3.0,4.0,78,0.00,CLR,,0.00,WeatherDisplay:10.37,2013-05-08 03:10:00,
2013-05-08 04:20:00,42.6,36.2,29.67,ENE,77,3.0,5.0,78,0.00,CLR,,0.00,WeatherDisplay:10.37,2013-05-08 03:20:00,
2013-05-08 04:30:00,42.6,36.6,29.67,ENE,75,5.0,6.0,79,0.00,CLR,,0.00,WeatherDisplay:10.37,2013-05-08 03:30:00,
2013-05-08 04:40:00,43.7,37.6,29.66,ESE,108,2.0,6.0,79,0.00,CLR,,0.00,WeatherDisplay:10.37,2013-05-08 03:40:00,
2013-05-08 04:50:00,44.6,38.8,29.66,ESE,112,2.0,5.0,80,0.00,CLR,,0.00,WeatherDisplay:10.37,2013-05-08 03:50:00,
2013-05-08 05:00:00,44.8,39.0,29.65,ESE,114,3.0,7.0,80,0.00,CLR,,0.00,WeatherDisplay:10.37,2013-05-08 04:00:00,
2013-05-08 05:10:00,45.2,39.4,29.65,ESE,112,5.0,7.0,80,0.00,CLR,,0.00,WeatherDisplay:10.37,2013-05-08 04:10:00,
2013-05-08 05:20:00,45.6,39.8,29.64,ESE,109,5.0,8.0,80,0.00,CLR,,0.00,WeatherDisplay:10.37,2013-05-08 04:20:00,
2013-05-08 05:30:00,45.9,40.0,29.64,ESE,119,6.0,8.0,80,0.00,CLR,,0.00,WeatherDisplay:10.37,2013-05-08 04:30:00,
2013-05-08 05:40:00,46.0,40.2,29.64,ESE,119,3.0,8.0,80,0.00,CLR,,0.00,WeatherDisplay:10.37,2013-05-08 04:40:00,
2013-05-08 05:50:00,45.9,40.1,29.63,ESE,112,1.0,8.0,80,0.00,CLR,,0.00,WeatherDisplay:10.37,2013-05-08 04:50:00,
2013-05-08 06:00:00,45.9,40.0,29.62,SE,139,5.0,8.0,80,0.00,CLR,,0.00,WeatherDisplay:10.37,2013-05-08 05:00:00,
2013-05-08 06:10:00,46.0,40.2,29.62,ESE,108,3.0,7.0,80,0.00,CLR,,0.00,WeatherDisplay:10.37,2013-05-08 05:10:00,
2013-05-08 06:20:00,46.6,41.1,29.62,East,96,2.0,6.0,81,0.00,CLR,,0.00,WeatherDisplay:10.37,2013-05-08 05:20:00,
2013-05-08 06:30:00,47.3,41.8,29.62,ENE,75,8.0,10.0,81,0.00,CLR,,0.00,WeatherDisplay:10.37,2013-05-08 05:30:00,
2013-05-08 06:40:00,47.8,42.3,29.61,ENE,70,0.0,8.0,81,0.00,CLR,,0.00,WeatherDisplay:10.37,2013-05-08 05:40:00,
2013-05-08 06:50:00,50.0,44.4,29.61,East,100,5.0,7.0,81,0.00,CLR,,0.00,WeatherDisplay:10.37,2013-05-08 05:50:00,
2013-05-08 07:00:00,49.6,43.1,29.60,East,94,1.0,4.0,78,0.00,CLR,,0.00,WeatherDisplay:10.37,2013-05-08 06:00:00,
2013-05-08 07:10:00,49.2,42.3,29.60,East,85,3.0,5.0,77,0.00,CLR,,0.00,WeatherDisplay:10.37,2013-05-08 06:10:00,
2013-05-08 07:20:00,49.1,42.5,29.60,ENE,64,5.0,7.0,78,0.00,CLR,,0.00,WeatherDisplay:10.37,2013-05-08 06:20:00,
2013-05-08 07:30:00,49.3,42.7,29.59,ENE,66,6.0,8.0,78,0.00,CLR,,0.00,WeatherDisplay:10.37,2013-05-08 06:30:00,
2013-05-08 07:40:00,49.9,43.3,29.59,ENE,62,7.0,10.0,78,0.00,CLR,,0.00,WeatherDisplay:10.37,2013-05-08 06:40:00,
2013-05-08 07:50:00,50.4,43.8,29.58,ENE,67,6.0,9.0,78,0.00,CLR,,0.00,WeatherDisplay:10.37,2013-05-08 06:50:00,
2013-05-08 08:00:00,50.7,44.1,29.58,NE,56,8.0,10.0,78,0.00,CLR,,0.00,WeatherDisplay:10.37,2013-05-08 07:00:00,
2013-05-08 08:10:00,50.5,43.9,29.57,NE,40,7.0,12.0,78,0.00,CLR,,0.00,WeatherDisplay:10.37,2013-05-08 07:10:00,
2013-05-08 08:20:00,50.6,44.0,29.57,NE,44,12.0,13.0,78,0.00,CLR,,0.00,WeatherDisplay:10.37,2013-05-08 07:20:00,
2013-05-08 08:30:00,50.8,43.8,29.57,NE,49,7.0,12.0,77,0.00,CLR,,0.00,WeatherDisplay:10.37,2013-05-08 07:30:00,
2013-05-08 08:40:00,52.1,45.4,29.57,NE,53,8.0,12.0,78,0.00,CLR,,0.00,WeatherDisplay:10.37,2013-05-08 07:40:00,
2013-05-08 08:50:00,52.8,45.1,29.56,ENE,58,9.0,12.0,75,0.00,CLR,,0.00,WeatherDisplay:10.37,2013-05-08 07:50:00,
2013-05-08 09:00:00,52.5,44.8,29.55,ENE,57,9.0,12.0,75,0.00,CLR,,0.00,WeatherDisplay:10.37,2013-05-08 08:00:00,
2013-05-08 09:10:00,52.2,44.5,29.55,ENE,59,12.0,13.0,75,0.00,CLR,,0.00,WeatherDisplay:10.37,2013-05-08 08:10:00,
2013-05-08 09:20:00,52.0,44.3,29.54,ENE,64,7.0,14.0,75,0.00,CLR,,0.00,WeatherDisplay:10.37,2013-05-08 08:20:00,
2013-05-08 09:30:00,52.5,44.8,29.54,ENE,77,6.0,11.0,75,0.00,CLR,,0.00,WeatherDisplay:10.37,2013-05-08 08:30:00,
2013-05-08 09:40:00,53.4,45.0,29.53,ENE,69,8.0,14.0,73,0.00,CLR,,0.00,WeatherDisplay:10.37,2013-05-08 08:40:00,
2013-05-08 09:50:00,55.4,46.5,29.52,ENE,69,9.0,13.0,72,0.00,CLR,,0.00,WeatherDisplay:10.37,2013-05-08 08:50:00,
2013-05-08 10:00:00,56.3,45.5,29.52,ENE,63,5.0,15.0,67,0.00,CLR,,0.00,WeatherDisplay:10.37,2013-05-08 09:00:00,
2013-05-08 10:10:00,57.2,45.5,29.51,NE,39,7.0,13.0,65,0.00,CLR,,0.00,WeatherDisplay:10.37,2013-05-08 09:10:00,
2013-05-08 10:20:00,57.4,45.3,29.51,ENE,59,10.0,16.0,64,0.00,CLR,,0.00,WeatherDisplay:10.37,2013-05-08 09:20:00,
2013-05-08 10:30:00,58.1,46.0,29.50,ENE,76,8.0,15.0,64,0.00,CLR,,0.00,WeatherDisplay:10.37,2013-05-08 09:30:00,
2013-05-08 10:40:00,59.8,46.3,29.50,East,87,9.0,16.0,61,0.00,CLR,,0.00,WeatherDisplay:10.37,2013-05-08 09:40:00,
2013-05-08 10:50:00,60.6,46.2,29.50,East,96,10.0,21.0,59,0.00,CLR,,0.00,WeatherDisplay:10.37,2013-05-08 09:50:00,
2013-05-08 11:00:00,60.5,46.1,29.49,East,83,8.0,21.0,59,0.00,CLR,,0.00,WeatherDisplay:10.37,2013-05-08 10:00:00,
2013-05-08 11:10:00,60.3,45.9,29.49,East,101,6.0,17.0,59,0.00,CLR,,0.00,WeatherDisplay:10.37,2013-05-08 10:10:00,
2013-05-08 11:20:00,59.5,45.6,29.48,East,101,13.0,16.0,60,0.00,CLR,,0.00,WeatherDisplay:10.37,2013-05-08 10:20:00,
2013-05-08 11:30:00,59.0,46.0,29.48,East,84,9.0,14.0,62,0.00,CLR,,0.00,WeatherDisplay:10.37,2013-05-08 10:30:00,
2013-05-08 11:40:00,58.1,45.1,29.47,ESE,109,5.0,17.0,62,0.00,CLR,,0.00,WeatherDisplay:10.37,2013-05-08 10:40:00,
2013-05-08 11:50:00,56.8,45.6,29.47,ESE,113,10.0,19.0,66,0.00,CLR,,0.00,WeatherDisplay:10.37,2013-05-08 10:50:00,
2013-05-08 12:00:00,56.1,45.7,29.47,East,98,9.0,13.0,68,0.00,CLR,,0.00,WeatherDisplay:10.37,2013-05-08 11:00:00,
2013-05-08 12:10:00,55.3,45.3,29.46,East,97,8.0,17.0,69,0.00,CLR,,0.00,WeatherDisplay:10.37,2013-05-08 11:10:00,
2013-05-08 12:20:00,54.8,45.2,29.46,ESE,123,8.0,15.0,70,0.00,CLR,,0.00,WeatherDisplay:10.37,2013-05-08 11:20:00,
2013-05-08 12:30:00,54.3,45.1,29.45,ESE,106,8.0,20.0,71,0.00,CLR,,0.00,WeatherDisplay:10.37,2013-05-08 11:30:00,
2013-05-08 12:40:00,53.6,44.8,29.45,ESE,116,6.0,16.0,72,0.00,CLR,,0.00,WeatherDisplay:10.37,2013-05-08 11:40:00,
2013-05-08 12:50:00,53.1,45.0,29.45,East,86,5.0,14.0,74,0.00,CLR,,0.00,WeatherDisplay:10.37,2013-05-08 11:50:00,
2013-05-08 13:00:00,52.4,45.4,29.45,ESE,104,8.0,17.0,77,0.00,CLR,,0.00,WeatherDisplay:10.37,2013-05-08 12:00:00,
2013-05-08 13:10:00,52.0,45.7,29.44,ESE,107,8.0,17.0,79,0.00,CLR,,0.00,WeatherDisplay:10.37,2013-05-08 12:10:00,
2013-05-08 13:20:00,51.3,45.7,29.44,ESE,114,6.0,14.0,81,0.00,CLR,,0.00,WeatherDisplay:10.37,2013-05-08 12:20:00,
2013-05-08 13:30:00,50.9,45.6,29.45,East,85,12.0,17.0,82,0.00,CLR,,0.00,WeatherDisplay:10.37,2013-05-08 12:30:00,
2013-05-08 13:40:00,50.5,45.9,29.44,ESE,105,7.0,19.0,84,0.00,CLR,,0.00,WeatherDisplay:10.37,2013-05-08 12:40:00,
2013-05-08 13:50:00,50.4,46.0,29.43,East,101,8.0,22.0,85,0.00,CLR,,0.00,WeatherDisplay:10.37,2013-05-08 12:50:00,
2013-05-08 14:00:00,50.2,46.2,29.43,East,98,8.0,20.0,86,0.00,CLR,,0.00,WeatherDisplay:10.37,2013-05-08 13:00:00,
2013-05-08 14:10:00,49.8,46.1,29.43,East,96,8.0,18.0,87,0.00,CLR,,0.00,WeatherDisplay:10.37,2013-05-08 13:10:00,
2013-05-08 14:20:00,49.6,45.9,29.42,East,89,8.0,17.0,87,0.00,CLR,,0.00,WeatherDisplay:10.37,2013-05-08 13:20:00,
2013-05-08 14:30:00,49.6,46.2,29.42,East,94,9.0,16.0,88,0.00,CLR,,0.00,WeatherDisplay:10.37,2013-05-08 13:30:00,
2013-05-08 14:40:00,49.5,46.4,29.42,ESE,106,8.0,14.0,89,0.02,RA,,0.02,WeatherDisplay:10.37,2013-05-08 13:40:00,
2013-05-08 14:50:00,49.1,46.0,29.41,East,86,12.0,18.0,89,0.00,CLR,,0.02,WeatherDisplay:10.37,2013-05-08 13:50:00,
2013-05-08 15:00:00,49.0,45.9,29.41,ESE,108,7.0,20.0,89,0.00,CLR,,0.02,WeatherDisplay:10.37,2013-05-08 14:00:00,
2013-05-08 15:10:00,48.9,46.4,29.41,ESE,107,6.0,14.0,91,0.00,CLR,,0.02,WeatherDisplay:10.37,2013-05-08 14:10:00,
2013-05-08 15:20:00,48.9,46.4,29.41,ESE,114,10.0,20.0,91,0.00,CLR,,0.02,WeatherDisplay:10.37,2013-05-08 14:20:00,
2013-05-08 15:30:00,48.4,45.9,29.40,East,92,9.0,16.0,91,0.00,CLR,,0.02,WeatherDisplay:10.37,2013-05-08 14:30:00,
2013-05-08 15:40:00,48.4,45.9,29.40,East,93,7.0,15.0,91,0.00,CLR,,0.02,WeatherDisplay:10.37,2013-05-08 14:40:00,
2013-05-08 15:50:00,48.4,45.9,29.40,ESE,105,13.0,16.0,91,0.00,CLR,,0.02,WeatherDisplay:10.37,2013-05-08 14:50:00,
2013-05-08 16:00:00,48.3,47.2,29.40,East,90,6.0,18.0,96,0.00,CLR,,0.02,WeatherDisplay:10.37,2013-05-08 15:00:00,
2013-05-08 16:10:00,47.9,46.9,29.40,East,86,3.0,14.0,96,0.00,CLR,,0.02,WeatherDisplay:10.37,2013-05-08 15:10:00,
2013-05-08 16:20:00,47.7,46.6,29.40,East,91,8.0,15.0,96,0.02,RA,,0.04,WeatherDisplay:10.37,2013-05-08 15:20:00,
2013-05-08 16:30:00,47.8,46.8,29.40,ESE,107,13.0,18.0,96,0.02,RA,,0.06,WeatherDisplay:10.37,2013-05-08 15:30:00,
2013-05-08 16:40:00,47.8,46.7,29.40,SE,133,6.0,14.0,96,0.02,RA,,0.08,WeatherDisplay:10.37,2013-05-08 15:40:00,
2013-05-08 16:50:00,47.8,46.7,29.39,ESE,112,9.0,14.0,96,0.00,CLR,,0.08,WeatherDisplay:10.37,2013-05-08 15:50:00,
2013-05-08 17:00:00,48.4,47.3,29.39,ESE,105,3.0,10.0,96,0.00,CLR,,0.08,WeatherDisplay:10.37,2013-05-08 16:00:00,
2013-05-08 17:10:00,48.6,47.5,29.39,ESE,122,2.0,9.0,96,0.00,CLR,,0.08,WeatherDisplay:10.37,2013-05-08 16:10:00,
2013-05-08 17:20:00,48.6,47.5,29.39,SE,140,1.0,10.0,96,0.00,CLR,,0.08,WeatherDisplay:10.37,2013-05-08 16:20:00,
2013-05-08 17:30:00,48.4,47.3,29.39,ESE,121,3.0,10.0,96,0.00,CLR,,0.08,WeatherDisplay:10.37,2013-05-08 16:30:00,
2013-05-08 17:40:00,48.3,47.2,29.39,SE,128,2.0,7.0,96,0.00,CLR,,0.08,WeatherDisplay:10.37,2013-05-08 16:40:00,
2013-05-08 17:50:00,48.1,47.0,29.39,SE,124,3.0,8.0,96,0.00,CLR,,0.08,WeatherDisplay:10.37,2013-05-08 16:50:00,
2013-05-08 18:00:00,48.2,47.2,29.39,ESE,105,3.0,8.0,96,0.00,CLR,,0.08,WeatherDisplay:10.37,2013-05-08 17:00:00,
2013-05-08 18:10:00,48.4,47.3,29.39,ESE,103,0.0,5.0,96,0.00,CLR,,0.08,WeatherDisplay:10.37,2013-05-08 17:10:00,
2013-05-08 18:20:00,48.7,47.6,29.38,ENE,77,5.0,9.0,96,0.00,CLR,,0.08,WeatherDisplay:10.37,2013-05-08 17:20:00,
2013-05-08 18:30:00,48.9,47.8,29.38,East,82,7.0,9.0,96,0.00,CLR,,0.08,WeatherDisplay:10.37,2013-05-08 17:30:00,
2013-05-08 18:40:00,49.3,47.1,29.38,East,94,0.0,6.0,92,0.00,CLR,,0.08,WeatherDisplay:10.37,2013-05-08 17:40:00,
2013-05-08 18:50:00,49.6,47.7,29.38,East,94,1.0,5.0,93,0.00,CLR,,0.08,WeatherDisplay:10.37,2013-05-08 17:50:00,
2013-05-08 19:00:00,49.5,47.2,29.38,SSE,166,2.0,4.0,92,0.00,CLR,,0.08,WeatherDisplay:10.37,2013-05-08 18:00:00,
2013-05-08 19:10:00,49.6,47.4,29.38,South,186,2.0,8.0,92,0.00,CLR,,0.08,WeatherDisplay:10.37,2013-05-08 18:10:00,
2013-05-08 19:20:00,50.2,48.2,29.38,SE,134,1.0,8.0,93,0.00,CLR,,0.08,WeatherDisplay:10.37,2013-05-08 18:20:00,
2013-05-08 19:30:00,50.0,47.8,29.38,South,190,3.0,12.0,92,0.00,CLR,,0.08,WeatherDisplay:10.37,2013-05-08 18:30:00,
2013-05-08 19:40:00,50.2,47.9,29.37,SSW,202,10.0,17.0,92,0.00,CLR,,0.08,WeatherDisplay:10.37,2013-05-08 18:40:00,
2013-05-08 19:50:00,50.2,47.7,29.37,SE,145,3.0,9.0,91,0.00,CLR,,0.08,WeatherDisplay:10.37,2013-05-08 18:50:00,
2013-05-08 20:00:00,50.2,47.4,29.38,South,184,3.0,15.0,90,0.00,CLR,,0.08,WeatherDisplay:10.37,2013-05-08 19:00:00,
2013-05-08 20:10:00,50.4,46.9,29.38,SSE,157,3.0,9.0,88,0.00,CLR,,0.08,WeatherDisplay:10.37,2013-05-08 19:10:00,
2013-05-08 20:20:00,50.7,46.7,29.38,SE,138,7.0,15.0,86,0.00,CLR,,0.08,WeatherDisplay:10.37,2013-05-08 19:20:00,
2013-05-08 20:30:00,50.4,45.4,29.39,WSW,252,10.0,17.0,83,0.00,CLR,,0.08,WeatherDisplay:10.37,2013-05-08 19:30:00,
2013-05-08 20:40:00,50.0,43.8,29.39,WSW,256,8.0,17.0,79,0.00,CLR,,0.08,WeatherDisplay:10.37,2013-05-08 19:40:00,
2013-05-08 20:50:00,49.5,42.5,29.39,SW,217,3.0,14.0,77,0.00,CLR,,0.08,WeatherDisplay:10.37,2013-05-08 19:50:00,
2013-05-08 21:00:00,48.7,41.8,29.39,WSW,257,9.0,15.0,77,0.00,CLR,,0.08,WeatherDisplay:10.37,2013-05-08 20:00:00,
2013-05-08 21:10:00,48.4,41.2,29.39,SW,224,7.0,15.0,76,0.00,CLR,,0.08,WeatherDisplay:10.37,2013-05-08 20:10:00,
2013-05-08 21:20:00,47.8,40.6,29.40,WSW,241,7.0,16.0,76,0.00,CLR,,0.08,WeatherDisplay:10.37,2013-05-08 20:20:00,
2013-05-08 21:30:00,47.3,40.1,29.40,SW,216,9.0,12.0,76,0.00,CLR,,0.08,WeatherDisplay:10.37,2013-05-08 20:30:00,
2013-05-08 21:40:00,46.8,39.6,29.41,WSW,239,2.0,17.0,76,0.00,CLR,,0.08,WeatherDisplay:10.37,2013-05-08 20:40:00,
2013-05-08 21:50:00,45.5,38.4,29.40,SSW,198,2.0,6.0,76,0.00,CLR,,0.08,WeatherDisplay:10.37,2013-05-08 20:50:00,
2013-05-08 22:00:00,44.5,37.7,29.40,ESE,114,3.0,14.0,77,0.00,CLR,,0.08,WeatherDisplay:10.37,2013-05-08 21:00:00,
2013-05-08 22:10:00,43.7,37.3,29.40,ESE,121,5.0,10.0,78,0.00,CLR,,0.08,WeatherDisplay:10.37,2013-05-08 21:10:00,
2013-05-08 22:20:00,43.3,37.6,29.40,ESE,122,3.0,12.0,80,0.00,CLR,,0.08,WeatherDisplay:10.37,2013-05-08 21:20:00,
2013-05-08 22:30:00,43.0,37.5,29.40,ESE,102,2.0,7.0,81,0.00,CLR,,0.08,WeatherDisplay:10.37,2013-05-08 21:30:00,
2013-05-08 22:40:00,43.0,37.9,29.40,East,95,2.0,7.0,82,0.00,CLR,,0.08,WeatherDisplay:10.37,2013-05-08 21:40:00,
2013-05-08 22:50:00,43.3,38.5,29.40,East,82,3.0,6.0,83,0.00,CLR,,0.08,WeatherDisplay:10.37,2013-05-08 21:50:00,
2013-05-08 23:00:00,43.7,38.9,29.40,ESE,111,2.0,5.0,83,0.00,CLR,,0.08,WeatherDisplay:10.37,2013-05-08 22:00:00,
2013-05-08 23:10:00,43.8,39.0,29.40,ESE,103,6.0,10.0,83,0.00,CLR,,0.08,WeatherDisplay:10.37,2013-05-08 22:10:00,
2013-05-08 23:20:00,44.2,39.7,29.40,ESE,114,5.0,13.0,84,0.00,CLR,,0.08,WeatherDisplay:10.37,2013-05-08 22:20:00,
2013-05-08 23:30:00,44.8,40.2,29.40,SE,128,2.0,7.0,84,0.00,CLR,,0.08,WeatherDisplay:10.37,2013-05-08 22:30:00,
2013-05-08 23:40:00,44.8,40.2,29.41,ESE,105,1.0,11.0,84,0.00,CLR,,0.08,WeatherDisplay:10.37,2013-05-08 22:40:00,
2013-05-08 23:50:00,44.8,40.5,29.41,South,177,3.0,8.0,85,0.00,CLR,,0.08,WeatherDisplay:10.37,2013-05-08 22:50:00,